EW9213 Weather Reports


time (UTC)temp
C
wind
direction
speed
KPH
gust
KPH
rain 1hr
cm
rain 24hr
cm
rain mn
cm
humidity
%
barometer
mb
20260906204506 24 166 4.8 17.7 0.00 0.23 0.23 76 1018.9
20260906203014 23 153 9.7 17.7 0.00 0.23 0.23 77 1019.1
20260906201505 21 209 3.2 11.3 0.00 0.23 0.23 85 1019.2
20260906200011 20 204 6.4 17.7 0.00 0.23 0.23 91 1019.4
20260906194504 20 190 4.8 11.3 0.03 0.23 0.23 93 1020.0
20260906193004 19 188 9.7 25.7 0.03 0.23 0.23 93 1020.6
20260906191502 20 162 11.3 27.4 0.03 0.23 0.23 87 1021.2
20260906190003 20 207 22.5 35.4 0.20 0.23 0.23 89 1021.1
20260906184601 19 180 20.9 40.2 0.20 0.20 0.20 88 1021.7
20260906183109 19 262 0.0 9.7 0.20 0.20 0.20 88 1020.8
20260906181555 18 11 3.2 40.2 0.20 0.20 0.20 90 1019.6
20260906180111 21 319 1.6 22.5 0.03 0.03 0.03 92 1020.6
20260906174551 25 357 11.3 29.0 0.00 0.00 0.00 81 1020.4
20260906173050 26 236 0.0 8.0 0.00 0.00 0.00 76 1019.4
20260906171549 26 126 8.0 17.7 0.00 0.00 0.00 76 1019.5
20260906170112 26 101 3.2 14.5 0.00 0.00 0.00 77 1020.0
20260906164543 26 143 6.4 11.3 0.00 0.00 0.00 82 1019.6
20260906163043 25 105 8.0 12.9 0.00 0.00 0.00 82 1019.5
20260906161539 25 93 1.6 8.0 0.00 0.00 0.00 82 1019.1
20260906160037 25 108 4.8 6.4 0.00 0.00 0.00 84 1018.7
20260906154535 24 103 1.6 4.8 0.00 0.00 0.00 85 1018.5
20260906153038 23 42 0.0 3.2 0.00 0.00 0.00 88 1018.2
20260906151533 22 6 0.0 8.0 0.00 0.00 0.00 89 1018.3
20260906150033 22 330 0.0 1.6 0.00 0.00 0.00 89 1018.5
20260906144536 22 323 0.0 1.6 0.00 0.00 0.00 88 1018.7
20260906143034 23 294 0.0 3.2 0.00 0.00 0.00 87 1018.7
20260906141536 23 6 0.0 6.4 0.00 0.00 0.00 87 1018.7
20260906140036 23 293 11.3 19.3 0.00 0.00 0.00 87 1018.8
20260906134529 22 257 14.5 24.1 0.00 0.00 0.00 89 1018.7
20260906133028 22 210 16.1 25.7 0.00 0.00 0.00 89 1018.3
20260906131527 23 225 14.5 27.4 0.00 0.00 0.00 87 1018.3
20260906130029 22 205 11.3 22.5 0.00 0.00 0.00 87 1018.4
20260906124537 23 215 20.9 30.6 0.00 0.00 0.00 85 1018.5
20260906123043 23 220 22.5 40.2 0.00 0.00 0.00 85 1018.5
20260906121520 23 233 22.5 37.0 0.00 0.00 0.00 86 1018.8
20260906120016 21 210 30.6 41.8 0.00 0.00 0.00 90 1019.2
20260906114515 21 220 25.7 35.4 0.00 0.00 0.00 91 1018.9
20260906113016 20 209 24.1 32.2 0.00 0.00 0.00 91 1018.7
20260906111523 21 192 27.4 37.0 0.00 0.00 0.00 90 1018.7
20260906110010 20 192 22.5 33.8 0.00 0.00 0.00 90 1018.6
20260906104508 20 184 22.5 30.6 0.00 0.00 0.00 90 1018.9
20260906103007 20 179 19.3 30.6 0.00 0.00 0.00 90 1018.8
20260906101507 20 188 14.5 24.1 0.00 0.00 0.00 91 1018.9
20260906100008 20 181 9.7 17.7 0.00 0.00 0.00 91 1019.0
20260906094504 20 167 14.5 19.3 0.00 0.00 0.00 92 1018.9
20260906093003 20 150 9.7 16.1 0.00 0.00 0.00 92 1018.9
20260906091501 19 137 6.4 8.0 0.00 0.00 0.00 93 1018.9
20260906090059 20 140 6.4 9.7 0.00 0.00 0.00 92 1018.9
20260906084559 20 150 1.6 4.8 0.00 0.00 0.00 92 1018.9
20260906083057 20 169 3.2 9.7 0.00 0.00 0.00 92 1018.7
20260906081558 20 159 9.7 17.7 0.00 0.00 0.00 91 1018.6
20260906080055 20 141 6.4 11.3 0.00 0.00 0.00 91 1018.5
20260906074554 20 149 1.6 4.8 0.00 0.00 0.00 91 1018.5
20260906073054 20 127 4.8 11.3 0.00 0.00 0.00 91 1018.5
20260906071551 20 134 4.8 9.7 0.00 0.00 0.00 92 1018.5
20260906070049 20 157 9.7 22.5 0.00 0.00 0.00 90 1018.4
20260906064547 20 151 16.1 24.1 0.00 0.00 0.00 90 1018.7
20260906063045 21 150 20.9 29.0 0.00 0.00 0.00 88 1018.9
20260906061542 20 155 20.9 25.7 0.00 0.00 0.00 89 1019.0
20260906060038 21 125 6.4 19.3 0.00 0.00 0.00 88 1018.8
20260906054541 21 157 11.3 17.7 0.00 0.00 0.00 87 1018.7
20260906053034 21 140 11.3 16.1 0.00 0.00 0.00 86 1018.8
20260906051530 21 142 8.0 12.9 0.00 0.00 0.00 87 1018.9
20260906050028 21 117 0.0 1.6 0.00 0.00 0.00 87 1018.8
20260906044528 21 84 0.0 1.6 0.00 0.00 0.00 87 1018.7
20260906043031 21 64 0.0 3.2 0.00 0.00 0.00 86 1018.6
20260906041527 21 99 0.0 1.6 0.00 0.00 0.00 86 1018.6
20260906040026 21 122 0.0 0.0 0.00 0.00 0.00 87 1018.5
20260906034526 21 87 0.0 8.0 0.00 0.00 0.00 84 1018.4
20260906033027 22 148 8.0 16.1 0.00 0.00 0.00 81 1018.2
20260906031525 23 174 12.9 17.7 0.00 0.00 0.00 81 1017.8
20260906030025 24 167 11.3 16.1 0.00 0.00 0.00 78 1017.6
20260906024524 25 176 9.7 17.7 0.00 0.00 0.00 76 1017.6
20260906023027 25 169 12.9 20.9 0.00 0.00 0.00 76 1017.5
20260906021522 25 189 12.9 22.5 0.00 0.00 0.00 75 1017.4
20260906020023 25 181 17.7 25.7 0.00 0.00 0.00 74 1017.3
20260906014527 25 181 17.7 24.1 0.00 0.00 0.00 75 1017.2
20260906013030 24 188 17.7 24.1 0.00 0.00 0.00 74 1017.1
20260906011521 24 180 17.7 25.7 0.00 0.00 0.00 73 1017.0
20260906010021 25 157 24.1 30.6 0.00 0.00 0.00 72 1016.9
20260906004520 25 160 20.9 27.4 0.00 0.00 0.00 66 1016.7
20260906003020 25 158 12.9 22.5 0.00 0.00 0.00 67 1016.7
20260906001520 25 174 12.9 20.9 0.00 0.00 0.00 67 1016.8
20260906000036 25 150 11.3 27.4 0.00 0.00 0.00 71 1017.1
20260905234518 25 173 14.5 35.4 0.00 0.00 0.00 73 1017.5
20260905233017 26 203 27.4 49.9 0.00 0.00 0.00 70 1017.9
20260905231516 29 198 27.4 41.8 0.00 0.00 0.00 57 1017.7
20260905230015 30 199 17.7 32.2 0.00 0.00 0.00 56 1017.0
20260905224514 30 139 19.3 32.2 0.00 0.00 0.00 53 1016.7
20260905223013 31 159 22.5 29.0 0.00 0.00 0.00 51 1016.9
20260905221512 31 141 17.7 29.0 0.00 0.00 0.00 49 1015.9
20260905220012 32 136 16.1 27.4 0.00 0.00 0.00 47 1015.6
20260905214508 32 194 17.7 30.6 0.00 0.00 0.00 45 1016.1
20260905213005 32 119 25.7 37.0 0.00 0.00 0.00 45 1016.5
20260905211503 32 162 14.5 20.9 0.00 0.00 0.00 45 1016.5
20260905210000 32 200 11.3 22.5 0.00 0.00 0.00 45 1016.3